Location: Rumah Geringgi
(3.1667°N, 113.1667°E)
Time: 21:46:21
(UTC+00:00)

Hubble Space Telescope - Pass Details

Date: 03 August 2024
Orbit: 505 x 509 km, 28.5° (Epoch: 19 September)

Event Time Altitude Azimuth Distance (km) Brightness Sun altitude
Exits shadow 20:26:02 17° 119° (ESE) 1,324 3.1 -29.2°
Drops below altitude 10° 20:27:36 10° 99° (E) 1,722 4.0 -28.8°
Sets 20:30:14 0° 83° (E) 2,607 5.4 -28.2°
